Home > Weather > St. Petersburg > Past weeks

Flag for U.S.A. Weather for the Past 2 Weeks in St. Petersburg, Florida, U.S.A.

Now
57 °F

More clouds than sun.


Feels Like: 54 °F
Forecast: 55 / 59 °F
Wind: 13 mph from North

Location: Whitted Airport

Current Time: Feb 9, 2016 at 2:10:11 PM

Latest Report: Feb 9, 2016 at 10:53 AM


Visibility: 10 mi

Pressure: 30.06 "Hg

Humidity: 53%

Dew point: 40 °F

Location of St. PetersburgLocation

Historic Weather in St. Petersburg — Graph

°F

St. Petersburg Temperature Yesterday

Maximum temperature yesterday: 65 °F (at 10:53 PM)
Minimum temperature yesterday: 49 °F (at 6:53 AM)
Average temperature yesterday: 58 °F

High & Low Weather Summary for the Past Weeks

 TemperatureHumidityPressure
High81 °F (Feb 3, 1:53 PM)100% (Jan 27, 4:01 AM)30.29 "Hg (Jan 27, 4:01 AM)
Low49 °F (Feb 5, 8:53 AM)31% (Feb 5, 3:53 PM)29.73 "Hg (Jan 28, 2:59 PM)
Average62 °F77%30.05 "Hg
* Reported Jan 25 10:53 AM — Feb 9 10:53 AM, St. Petersburg, Weather by CustomWeather, © 2016

Note: Actual official high and low records may vary slightly from our data, if they occured in-between our weather recording intervals... More about our weather records

Advertising

St. Petersburg Weather History for the Previous 24 Hours

 ConditionsComfort  
Time TempWeatherWind HumidityBarometerVisibility
10:53 AM
Tue, Feb 9
57 °FMore clouds than sun.13 mph53%30.06 "Hg10 mi
9:53 AM57 °FMore clouds than sun.10 mph51%30.06 "Hg10 mi
8:53 AM55 °FOvercast.6 mph53%30.05 "Hg10 mi
7:53 AM54 °FOvercast.9 mph55%30.04 "Hg10 mi
6:53 AM54 °FOvercast.12 mph57%30.04 "Hg10 mi
5:53 AM55 °FOvercast.12 mph55%30.01 "Hg10 mi
4:53 AM56 °FMostly cloudy.9 mph53%29.98 "Hg10 mi
3:53 AM57 °FMostly cloudy.18 mph51%29.96 "Hg10 mi
2:53 AM58 °FOvercast.10 mph54%29.95 "Hg10 mi
1:53 AM60 °FOvercast.14 mph49%29.93 "Hg10 mi
12:53 AM60 °FMostly cloudy.17 mph56%29.93 "Hg10 mi
11:53 PM
Mon, Feb 8
62 °FMostly cloudy.15 mph65%29.92 "Hg10 mi
10:53 PM65 °FPassing clouds.20 mph52%29.90 "Hg10 mi
9:53 PM64 °FClear.12 mph70%29.89 "Hg10 mi
8:53 PM64 °FPassing clouds.15 mph70%29.90 "Hg10 mi
7:53 PM63 °FPassing clouds.10 mph75%29.91 "Hg10 mi
6:53 PM63 °FPartly cloudy.12 mph68%29.90 "Hg10 mi
5:53 PM63 °FScattered clouds.10 mph63%29.93 "Hg10 mi
4:53 PM64 °FSunny.14 mph54%29.94 "Hg10 mi
3:53 PM64 °FSunny.15 mph52%29.95 "Hg10 mi
2:53 PM64 °FSunny.22 mph52%29.96 "Hg10 mi
Weather by CustomWeather, © 2016

See weather overviewHow to use our weather pages